This is the latest recevied weather packets stored in our database for station/object N1OF. If no packets are shown the sender has not sent any weather packets the latest 10 day(s).
| Time | Temp. | Humidity | Pressure | Rain* | Wind** | Luminosity | Snow |
|---|---|---|---|---|---|---|---|
| 1777701165 | 3.89° C | 70% | 1017.4 hPa | 0 mm | - | - | - |
| 1777700864 | 3.89° C | 70% | 1017.4 hPa | 0 mm | - | - | - |
| 1777700561 | 3.89° C | 69% | 1017.6 hPa | 0 mm | - | - | - |
| 1777700259 | 3.89° C | 69% | 1017.6 hPa | 0 mm | - | - | - |
| 1777699956 | 4.44° C | 69% | 1017.4 hPa | 0 mm | - | - | - |
| 1777699654 | 4.44° C | 68% | 1017.6 hPa | 0 mm | - | - | - |
| 1777699352 | 4.44° C | 67% | 1017.5 hPa | 0 mm | - | - | - |
| 1777699049 | 4.44° C | 67% | 1017.3 hPa | 0 mm | - | - | - |
| 1777698748 | 4.44° C | 67% | 1017.4 hPa | 0 mm | - | - | - |
| 1777698444 | 4.44° C | 68% | 1017.5 hPa | 0 mm | - | - | - |
| 1777698140 | 4.44° C | 67% | 1017.4 hPa | 0 mm | - | - | - |
| 1777697837 | 4.44° C | 68% | 1017.3 hPa | 0 mm | - | - | - |
| 1777697534 | 4.44° C | 68% | 1017.5 hPa | 0 mm | - | - | - |
| 1777697231 | 4.44° C | 68% | 1017.4 hPa | 0 mm | - | - | - |
| 1777696927 | 4.44° C | 68% | 1017.7 hPa | 0 mm | - | - | - |
| 1777696625 | 4.44° C | 70% | 1017.8 hPa | 0 mm | - | - | - |
| 1777696322 | 5° C | 69% | 1017.8 hPa | 0 mm | - | - | - |
| 1777696021 | 5° C | 70% | 1017.6 hPa | 0 mm | - | - | - |
| 1777695719 | 5° C | 72% | 1017.9 hPa | 0 mm | - | - | - |
| 1777695416 | 5° C | 74% | 1017.9 hPa | 0 mm | - | - | - |
| 1777695113 | 5° C | 76% | 1017.8 hPa | 0 mm | - | - | - |
| 1777694810 | 5° C | 75% | 1017.7 hPa | 0 mm | - | - | - |
| 1777694507 | 5° C | 77% | 1017.7 hPa | 0 mm | - | - | - |
| 1777694203 | 5° C | 80% | 1017.7 hPa | 0 mm | - | - | - |
| 1777693900 | 4.44° C | 86% | 1017.6 hPa | 0 mm | - | - | - |
* Rain latest hour (hover to see other rain measurements)
** Current wind speed in m/s (hover to see current wind gust speed)